Content
SEND FEEDBACK

Daily
Averages
Monthly
Summary
Philippines

BOOT, PHILIPPINES


Home > Asia > Philippines
Elevation: 36 feet     Latitude: 14 04N     Longitude: 121 03E

WEATHER
 
SELECT A DAY
Number of Records: 172,634;   Date Range: 7/1/96 - 8/30/14
 
SHARE

PRINT THIS DATA

[ ← Previous Day ]
WEATHER ALMANAC - SEPTEMBER 1, 2013
[ Next Day → ]
[ °C ]   °F
Weather ElementAverageHighLow
Temperature84.1 °F91.4 °F (3:00 pm)80 °F (5:00 am)
Dewpoint76.9 °F80.6 °F (6:00 am)73 °F (8:00 pm)
Humidity78.6 %100 % (6:00 am)55 % (5:00 pm)
Barometer29.85 in29.90 in (11:00 pm)29.77 in (3:00 pm)
Wind Speed5.1 mph8.9 mph (2:00 pm)
Wind Gust20.7 mph (4:00 pm)
Weather ElementAverage
Visibility5.7 mi
Wind DirectionESE (125.9 °)

Weather ElementTotal
Precipitation---
Cooling Degree Days20.7 (Base 65)
Growing Degree Days35.7 (Base 50)
Averaged from 29 records on September 1, 2013
WEATHER CONDITIONS BREAKOUT
WIND DIRECTION BREAKOUT
WEATHER BY HOUR - SEPTEMBER 1, 2013
[ °C ]   °F
Local TimeTemperatureDewpointHumidityBarometerVisibilityWind DirectionWind SpeedGust SpeedPrecipitationEventsConditions
1:00 AM82.4 °F78.8 °F89 %29.86 in5.0 miEast (90°)3.5 mphScattered Clouds
2:00 AM82.4 °F78.8 °F89 %29.83 in5.0 miEast (80°)3.5 mphScattered Clouds
3:00 AM80.6 °F78.8 °F94 %29.83 in5.0 miVariable2.3 mphScattered Clouds
4:00 AM80.6 °F78.8 °F94 %29.83 in3.7 miVariable1.2 mphScattered Clouds
5:00 AM80.0 °F79.0 °F96 %29.83 in4.0 miEast (90°)2.2 mphHaze
5:00 AM80.6 °F78.8 °F94 %29.83 in3.7 miEast (90°)2.3 mphScattered Clouds
6:00 AM80.6 °F80.6 °F100 %29.86 in5.0 miCalmScattered Clouds
7:00 AM82.4 °F80.6 °F94 %29.86 in4.3 miVariable2.3 mphScattered Clouds
8:00 AM82.0 °F78.0 °F83 %29.89 in6.0 miWNW (300°)6.7 mphHaze
8:00 AM82.4 °F78.8 °F89 %29.89 in6.2 miWNW (290°)6.9 mphMostly Cloudy
9:00 AM84.2 °F77.0 °F79 %29.89 in6.2 miNW (320°)4.6 mphMostly Cloudy
10:00 AM86.0 °F78.8 °F79 %29.89 in6.2 miWNW (300°)5.8 mphOvercast
11:00 AM86.0 °F78.8 °F79 %29.86 in6.2 miWest (260°)6.9 mphOvercast
12:00 PM86.0 °F78.8 °F79 %29.83 in6.2 miWest (270°)8.1 mphOvercast
1:00 PM87.8 °F78.8 °F75 %29.83 in6.2 miWNW (300°)8.1 mphMostly Cloudy
2:00 PM90.0 °F79.0 °F64 %29.81 in6.0 miWNW (290°)8.9 mphHaze
2:00 PM89.6 °F77.0 °F66 %29.80 in6.2 miWNW (290°)8.1 mphOvercast
3:00 PM91.4 °F75.2 °F59 %29.77 in6.2 miVariable4.6 mphMostly Cloudy
4:00 PM89.6 °F75.2 °F62 %29.77 in6.2 miWest (270°)6.9 mph20.7 mphMostly Cloudy
5:00 PM88.0 °F74.0 °F55 %29.81 in6.0 miNorth (10°)6.7 mphHaze
5:00 PM87.8 °F73.4 °F62 %29.80 in6.2 miNorth (10°)8.1 mphMostly Cloudy
6:00 PM84.2 °F73.4 °F70 %29.83 in6.2 miENE (60°)6.9 mphMostly Cloudy
7:00 PM82.4 °F75.2 °F79 %29.86 in6.2 miENE (70°)5.8 mphScattered Clouds
8:00 PM83.0 °F73.0 °F65 %29.89 in6.0 miNorth (10°)6.7 mphHaze
8:00 PM82.4 °F73.4 °F74 %29.86 in6.2 miNorth (10°)6.9 mphPartly Cloudy
9:00 PM82.4 °F73.4 °F74 %29.89 in6.2 miNNE (30°)6.9 mphPartly Cloudy
10:00 PM82.4 °F75.2 °F79 %29.89 in6.2 miNE (50°)4.6 mphMostly Cloudy
11:00 PM82.0 °F75.0 °F74 %29.90 in6.0 miSSE (160°)2.2 mphHaze
11:00 PM80.6 °F75.2 °F84 %29.89 in6.2 miVariable1.2 mphScattered Clouds
Hourly data recorded from RPLL, located miles away from Boot, Philippines







STORIES FROM OUR PARTNERS